Weather History for KGSH - March, 2013

Change the Weather History Date:

Friday, March 15, 2013

  Actual Average Record
Temperature  
Mean Temperature 38 °F -  
Max Temperature 46 °F 46 °F 81 °F (2012)
Min Temperature 30 °F 29 °F 8 °F (1993)
Degree Days  
Heating Degree Days 27    
Moisture  
Dew Point 34 °F    
Average Humidity 84    
Maximum Humidity 93    
Minimum Humidity 63    
Precipitation  
Precipitation 0.11 in - - ()
Sea Level Pressure  
Sea Level Pressure 29.92 in    
Wind  
Wind Speed 6 mph (SW)    
Max Wind Speed 14 mph    
Max Gust Speed -    
Visibility 5 miles    
Events Rain    
Averages and records for this station are not official NWS values.
T = Trace of Precipitation, MM = Missing Value Source: NWS Daily Summary

Daily Weather History Graph

Daily Weather History Graph

Search for Another Location

Airport or City:

Trip Planner

Search our weather history database for the weather conditions in past years. The results will help you decide how hot, cold, wet, or windy it might be!

Date:

Astronomy

Mar. 15, 2013 Rise Set
Actual Time 7:54 AM EDT 7:50 PM EDT
Civil Twilight 7:26 AM EDT 8:17 PM EDT
Nautical Twilight 6:54 AM EDT 8:49 PM EDT
Astronomical Twilight 6:22 AM EDT 9:22 PM EDT
Moon 9:41 AM EDT (3/15) No Moon Set
Length of Visible Light 12h 50m
Length of Day
11h 55m
Waxing Crescent, 15% of the Moon is Illuminated
Mar 15
Waxing Crescent
Mar 19
First Quarter
Mar 27
Full
Apr 3
Last Quarter
Apr 10
New

Hourly Weather History & Observations

Time (EDT) Temp. Windchill Dew Point Humidity Pressure Visibility Wind Dir Wind Speed Gust Speed Precip Events Conditions
12:53 AM 32.0 °F 26.4 °F 28.0 °F 85% 30.13 in 10.0 mi SW 5.8 mph - N/A   Mostly Cloudy
1:41 AM 32.0 °F 24.8 °F 28.4 °F 87% 30.09 in 9.0 mi SW 8.1 mph - N/A   Overcast
1:53 AM 32.0 °F 26.4 °F 28.9 °F 88% 30.11 in 9.0 mi SW 5.8 mph - N/A   Overcast
2:53 AM 33.1 °F 24.9 °F 28.9 °F 85% 30.09 in 7.0 mi SW 10.4 mph - N/A   Overcast
3:45 AM 30.2 °F 22.6 °F 28.4 °F 93% 30.04 in 6.0 mi SSW 8.1 mph - N/A   Scattered Clouds
3:53 AM 30.9 °F 22.8 °F 28.0 °F 89% 30.06 in 6.0 mi SSW 9.2 mph - N/A   Partly Cloudy
4:53 AM 30.9 °F 23.5 °F 28.0 °F 89% 30.04 in 6.0 mi SW 8.1 mph - N/A   Clear
5:53 AM 30.9 °F 24.3 °F 27.0 °F 85% 30.02 in 6.0 mi SW 6.9 mph - N/A   Clear
6:53 AM 30.0 °F 24.1 °F 27.0 °F 88% 29.99 in 5.0 mi SSW 5.8 mph - N/A   Clear
7:53 AM 30.0 °F 24.1 °F 27.0 °F 88% 29.99 in 5.0 mi WSW 5.8 mph - N/A   Clear
8:53 AM 30.9 °F 25.2 °F 28.0 °F 89% 29.98 in 4.0 mi SW 5.8 mph - N/A   Clear
9:53 AM 33.1 °F 26.1 °F 28.9 °F 85% 29.96 in 4.0 mi SW 8.1 mph - N/A   Clear
10:53 AM 36.0 °F 29.0 °F 30.0 °F 79% 29.96 in 6.0 mi WSW 9.2 mph - N/A   Haze
11:53 AM 37.9 °F 32.1 °F 30.9 °F 76% 29.96 in 7.0 mi West 8.1 mph - N/A   Partly Cloudy
12:53 PM 39.9 °F 35.1 °F 32.0 °F 73% 29.93 in 7.0 mi SW 6.9 mph - N/A   Clear
1:53 PM 44.1 °F 40.1 °F 34.0 °F 68% 29.92 in 8.0 mi WSW 6.9 mph - N/A   Partly Cloudy
2:53 PM 45.0 °F 41.2 °F 34.0 °F 65% 29.90 in 8.0 mi West 6.9 mph - N/A   Clear
3:53 PM 46.9 °F - 35.1 °F 63% 29.88 in 9.0 mi West 13.8 mph - N/A   Overcast
4:53 PM 46.9 °F - 35.1 °F 63% 29.87 in 9.0 mi West 6.9 mph - N/A   Overcast
5:53 PM 46.0 °F 41.4 °F 37.0 °F 71% 29.86 in 7.0 mi West 9.2 mph - 0.00 in Rain Light Rain
6:53 PM 44.1 °F 40.8 °F 39.0 °F 82% 29.86 in 4.0 mi WSW 5.8 mph - 0.03 in Rain Light Rain
7:53 PM 43.0 °F - 39.9 °F 89% 29.85 in 4.0 mi Calm Calm - 0.01 in Rain Light Rain
8:13 PM 42.8 °F - 39.2 °F 87% 29.83 in 3.0 mi Calm Calm - 0.01 in Rain Light Rain
8:25 PM 42.8 °F - 39.2 °F 87% 29.83 in 3.0 mi Calm Calm - 0.02 in Rain Light Rain
8:34 PM 42.8 °F - 39.2 °F 87% 29.83 in 2.5 mi Calm Calm - 0.03 in Rain Light Rain
8:53 PM 42.1 °F 39.2 °F 39.0 °F 89% 29.84 in 3.0 mi SSW 4.6 mph - 0.03 in Rain Light Rain
9:19 PM 42.8 °F - 39.2 °F 87% 29.81 in 2.5 mi Calm Calm - 0.02 in Rain Light Rain
9:34 PM 42.8 °F - 39.2 °F 87% 29.81 in 2.5 mi Calm Calm - 0.02 in Rain Light Rain
9:53 PM 42.1 °F - 39.9 °F 92% 29.82 in 2.5 mi Calm Calm - 0.02 in Rain Light Rain
10:09 PM 42.8 °F 41.1 °F 39.2 °F 87% 29.80 in 1.8 mi ESE 3.5 mph - 0.00 in   Overcast
10:35 PM 42.8 °F 39.3 °F 39.2 °F 87% 29.78 in 1.8 mi East 5.8 mph - 0.00 in   Overcast
10:45 PM 42.8 °F 41.1 °F 39.2 °F 87% 29.78 in 2.0 mi East 3.5 mph - 0.01 in Rain Light Rain
10:53 PM 42.1 °F 40.2 °F 39.0 °F 89% 29.81 in 2.0 mi ENE 3.5 mph - 0.01 in Rain Light Rain
11:24 PM 41.0 °F - 39.2 °F 93% 29.80 in 1.8 mi Calm Calm - 0.01 in   Overcast
11:53 PM 41.0 °F 39.0 °F 39.0 °F 93% 29.82 in 1.2 mi NNW 3.5 mph - 0.01 in   Overcast